Time,TemperatureF,DewpointF,PressureIn,WindDirection,WindDirectionDegrees,WindSpeedMPH,WindSpeedGustMPH,Humidity,HourlyPrecipIn,Conditions,Clouds,dailyrainin,SoftwareType,DateUTC
2016-12-04 00:04:00,42.5,41.0,30.08,SSE,165,7.0,9.0,95,0.00,,,0.00,weatherlink.com 1.10,2016-12-04 06:04:00,
2016-12-04 00:19:00,42.6,41.0,30.07,NNE,32,3.0,11.0,95,0.00,,,0.00,weatherlink.com 1.10,2016-12-04 06:19:00,
2016-12-04 00:34:00,42.7,41.0,30.08,SE,126,1.0,10.0,95,0.00,,,0.00,weatherlink.com 1.10,2016-12-04 06:34:00,
2016-12-04 00:49:00,42.7,41.0,30.07,SE,141,4.0,10.0,95,0.00,,,0.00,weatherlink.com 1.10,2016-12-04 06:49:00,
2016-12-04 01:04:00,42.8,42.0,30.06,ESE,110,3.0,11.0,95,0.00,,,0.00,weatherlink.com 1.10,2016-12-04 07:04:00,
2016-12-04 01:19:00,42.8,42.0,30.06,SE,127,9.0,10.0,95,0.00,,,0.00,weatherlink.com 1.10,2016-12-04 07:19:00,
2016-12-04 01:34:00,42.9,42.0,30.06,SE,129,8.0,11.0,95,0.01,,,0.01,weatherlink.com 1.10,2016-12-04 07:34:00,
2016-12-04 01:49:00,42.9,42.0,30.06,ESE,123,4.0,10.0,95,0.01,,,0.01,weatherlink.com 1.10,2016-12-04 07:49:00,
2016-12-04 02:04:00,42.9,42.0,30.06,ESE,115,4.0,11.0,95,0.02,,,0.02,weatherlink.com 1.10,2016-12-04 08:04:00,
2016-12-04 02:19:00,42.9,42.0,30.05,ESE,112,6.0,10.0,96,0.02,,,0.02,weatherlink.com 1.10,2016-12-04 08:19:00,
2016-12-04 02:34:00,43.0,42.0,30.04,SSE,167,5.0,13.0,96,0.01,,,0.02,weatherlink.com 1.10,2016-12-04 08:34:00,
2016-12-04 02:49:00,43.1,42.0,30.03,ESE,114,7.0,12.0,96,0.02,,,0.03,weatherlink.com 1.10,2016-12-04 08:49:00,
2016-12-04 03:04:00,43.1,42.0,30.03,SE,133,4.0,14.0,96,0.02,,,0.04,weatherlink.com 1.10,2016-12-04 09:04:00,
2016-12-04 03:20:00,43.1,42.0,30.03,East,84,5.0,13.0,96,0.03,,,0.05,weatherlink.com 1.10,2016-12-04 09:20:00,
2016-12-04 03:34:00,43.1,42.0,30.03,NE,56,5.0,10.0,96,0.05,,,0.07,weatherlink.com 1.10,2016-12-04 09:34:00,
2016-12-04 03:49:00,43.2,42.0,30.03,ESE,120,5.0,11.0,96,0.08,,,0.11,weatherlink.com 1.10,2016-12-04 09:49:00,
2016-12-04 04:04:00,43.2,42.0,30.02,South,191,3.0,12.0,96,0.09,,,0.13,weatherlink.com 1.10,2016-12-04 10:04:00,
2016-12-04 04:19:00,43.3,42.0,30.01,ESE,121,8.0,14.0,96,0.08,,,0.13,weatherlink.com 1.10,2016-12-04 10:19:00,
2016-12-04 04:34:00,43.4,43.0,30.00,SE,129,4.0,14.0,97,0.07,,,0.14,weatherlink.com 1.10,2016-12-04 10:34:00,
2016-12-04 04:49:00,43.5,43.0,29.99,East,101,8.0,13.0,97,0.03,,,0.14,weatherlink.com 1.10,2016-12-04 10:49:00,
2016-12-04 05:04:00,43.6,43.0,30.00,South,173,6.0,11.0,97,0.02,,,0.15,weatherlink.com 1.10,2016-12-04 11:04:00,
2016-12-04 05:20:00,43.7,43.0,29.98,SSE,147,5.0,13.0,97,0.03,,,0.16,weatherlink.com 1.10,2016-12-04 11:20:00,
2016-12-04 05:34:00,43.8,43.0,29.98,SSE,150,9.0,12.0,97,0.03,,,0.17,weatherlink.com 1.10,2016-12-04 11:34:00,
2016-12-04 05:49:00,43.9,43.0,29.99,ESE,109,9.0,14.0,97,0.03,,,0.17,weatherlink.com 1.10,2016-12-04 11:49:00,
2016-12-04 06:04:00,44.1,43.0,29.99,East,85,11.0,11.0,97,0.02,,,0.17,weatherlink.com 1.10,2016-12-04 12:04:00,
2016-12-04 06:20:00,44.2,43.0,30.00,South,181,3.0,15.0,97,0.01,,,0.17,weatherlink.com 1.10,2016-12-04 12:20:00,
2016-12-04 06:34:00,44.3,44.0,30.01,SSE,164,5.0,9.0,97,0.00,,,0.17,weatherlink.com 1.10,2016-12-04 12:34:00,
2016-12-04 06:49:00,44.8,44.0,30.01,ENE,78,3.0,9.0,97,0.01,,,0.18,weatherlink.com 1.10,2016-12-04 12:49:00,
2016-12-04 07:04:00,44.9,44.0,30.02,ESE,107,9.0,9.0,97,0.01,,,0.18,weatherlink.com 1.10,2016-12-04 13:04:00,
2016-12-04 07:19:00,45.0,44.0,30.01,South,175,3.0,12.0,97,0.01,,,0.18,weatherlink.com 1.10,2016-12-04 13:19:00,
2016-12-04 07:34:00,45.0,44.0,30.02,SSE,152,7.0,9.0,97,0.01,,,0.18,weatherlink.com 1.10,2016-12-04 13:34:00,
2016-12-04 07:49:00,45.1,44.0,30.00,SSE,165,7.0,12.0,97,0.01,,,0.19,weatherlink.com 1.10,2016-12-04 13:49:00,
2016-12-04 08:04:00,45.1,44.0,29.99,SSE,165,7.0,15.0,97,0.01,,,0.19,weatherlink.com 1.10,2016-12-04 14:04:00,
2016-12-04 08:19:00,45.1,44.0,29.99,SSE,164,6.0,15.0,97,0.02,,,0.20,weatherlink.com 1.10,2016-12-04 14:19:00,
2016-12-04 08:34:00,45.2,44.0,30.00,SE,140,5.0,12.0,97,0.03,,,0.21,weatherlink.com 1.10,2016-12-04 14:34:00,
2016-12-04 08:50:00,45.4,45.0,30.00,South,178,6.0,12.0,97,0.02,,,0.21,weatherlink.com 1.10,2016-12-04 14:50:00,
2016-12-04 09:05:00,45.6,45.0,30.00,South,173,7.0,12.0,97,0.06,,,0.25,weatherlink.com 1.10,2016-12-04 15:05:00,
2016-12-04 09:20:00,45.7,45.0,30.01,SSE,168,9.0,10.0,98,0.08,,,0.28,weatherlink.com 1.10,2016-12-04 15:20:00,
2016-12-04 09:34:00,45.9,45.0,30.01,South,190,5.0,16.0,97,0.09,,,0.30,weatherlink.com 1.10,2016-12-04 15:34:00,
2016-12-04 09:50:00,46.3,46.0,30.02,ESE,120,4.0,7.0,98,0.09,,,0.30,weatherlink.com 1.10,2016-12-04 15:50:00,
2016-12-04 10:05:00,46.6,46.0,30.01,SE,140,7.0,9.0,98,0.05,,,0.30,weatherlink.com 1.10,2016-12-04 16:05:00,
2016-12-04 10:20:00,46.9,46.0,30.00,South,170,5.0,10.0,98,0.02,,,0.30,weatherlink.com 1.10,2016-12-04 16:20:00,
2016-12-04 10:35:00,47.1,47.0,30.00,SSE,167,8.0,11.0,98,0.00,,,0.30,weatherlink.com 1.10,2016-12-04 16:35:00,
2016-12-04 10:50:00,47.3,47.0,30.00,SSE,155,4.0,11.0,98,0.00,,,0.30,weatherlink.com 1.10,2016-12-04 16:50:00,
2016-12-04 11:05:00,47.5,47.0,30.00,SSE,165,5.0,10.0,98,0.00,,,0.30,weatherlink.com 1.10,2016-12-04 17:05:00,
2016-12-04 11:20:00,47.7,47.0,29.98,South,175,7.0,12.0,98,0.00,,,0.30,weatherlink.com 1.10,2016-12-04 17:20:00,
2016-12-04 11:35:00,47.9,47.0,29.97,East,100,6.0,12.0,98,0.00,,,0.30,weatherlink.com 1.10,2016-12-04 17:35:00,
2016-12-04 11:50:00,48.1,48.0,29.94,SSE,162,8.0,14.0,98,0.00,,,0.30,weatherlink.com 1.10,2016-12-04 17:50:00,
2016-12-04 12:05:00,48.5,48.0,29.94,SE,132,8.0,15.0,98,0.00,,,0.30,weatherlink.com 1.10,2016-12-04 18:05:00,
2016-12-04 12:20:00,48.8,48.0,29.93,South,180,8.0,14.0,98,0.00,,,0.30,weatherlink.com 1.10,2016-12-04 18:20:00,
2016-12-04 12:35:00,49.3,49.0,29.92,SSE,161,7.0,13.0,98,0.00,,,0.30,weatherlink.com 1.10,2016-12-04 18:35:00,
2016-12-04 12:51:00,49.4,49.0,29.92,SSE,153,7.0,12.0,98,0.00,,,0.30,weatherlink.com 1.10,2016-12-04 18:51:00,
2016-12-04 13:05:00,49.6,49.0,29.91,SSE,163,7.0,13.0,98,0.00,,,0.30,weatherlink.com 1.10,2016-12-04 19:05:00,
2016-12-04 13:20:00,49.6,49.0,29.91,SSE,164,7.0,10.0,98,0.00,,,0.30,weatherlink.com 1.10,2016-12-04 19:20:00,
2016-12-04 13:35:00,49.5,49.0,29.91,SSE,150,8.0,17.0,98,0.00,,,0.30,weatherlink.com 1.10,2016-12-04 19:35:00,
2016-12-04 13:50:00,49.5,49.0,29.91,SSE,167,8.0,16.0,98,0.00,,,0.30,weatherlink.com 1.10,2016-12-04 19:50:00,
2016-12-04 14:05:00,49.7,49.0,29.91,SSE,149,10.0,11.0,98,0.00,,,0.30,weatherlink.com 1.10,2016-12-04 20:05:00,
2016-12-04 14:20:00,50.1,50.0,29.91,South,169,7.0,12.0,98,0.00,,,0.30,weatherlink.com 1.10,2016-12-04 20:20:00,
2016-12-04 14:35:00,50.3,50.0,29.91,South,171,5.0,10.0,98,0.00,,,0.30,weatherlink.com 1.10,2016-12-04 20:35:00,
2016-12-04 14:50:00,50.3,50.0,29.92,SSE,163,5.0,10.0,98,0.00,,,0.30,weatherlink.com 1.10,2016-12-04 20:50:00,